Starlink 33807

operational
NORAD ID: 63518 Int'l Des: 2025-071 Owner: SPXS Country: US Constellation: starlink
LEOCIRCULAR

About Starlink 33807

Description loading...

Live Position

Loading 3D Globe...

Upcoming Passes

Altitude History

Altitude vs Time

uPlot chart will show altitude changes over time

Two-Line Element Set

1 63518U 25071AB 25302.50407668 .00036657 00000-0 12430-2 0 9995
2 63518 53.1612 31.4411 0000970 76.4605 283.6504 15.30217006 32650
Epoch: Oct 29, 2025 • Age: 37 hours

Current Status

Altitude 478.3 km
Velocity 7.63 km/s
Sub-Earth Point -11.82°S, 158.73°E
Launch Date Apr 7, 2025
Age 0.5 years
Type internet

Technical Details

Classification Payload
Mass 575.00 kg
Dry Mass 530.00 kg
Total Mass 575.00 kg
Length 0.30 m
Diameter 4.10 m
Span 29.00 m
Shape Box + pan
Manufacturer SPXS
Bus Type Starlink V2MO
Phase Status In Orbit
Owner/State SPXS/US

Large Constellations

Loading constellations...